Theta_e
309 304 301 304 305 306 304 304 305 309 311 311 313 317 320 327 331 332 332 332 333 334 339 343 345 347 349 351 352 353 353 357 354 352 349 349 346 350 353 357 361 362 363 364
303 300 305 307 305 303 303 302 304 308 308 308 310 311 316 325 328 331 333 333 333 335 338 341 344 346 348 350 352 354 355 357 355 353 354 352 353 352 356 359 361 362 362 364
301 303 307 305 304 303 302 301 304 304 306 308 309 308 314 325 329 332 334 336 336 336 336 339 342 344 347 348 351 354 357 358 357 358 355 355 355 356 354 355 357 360 361 363
302 307 304 303 302 304 300 305 304 303 303 301 310 302 311 319 325 328 331 334 335 337 339 340 341 344 346 349 351 354 356 358 357 359 355 356 349 348 351 354 357 358 362 362
301 302 302 302 302 306 302 306 305 305 304 303 304 302 308 318 320 325 329 332 335 337 339 339 341 344 347 349 349 352 356 358 359 359 359 354 353 352 354 355 360 363 364 363
304 306 306 305 307 307 308 305 304 303 303 296 303 302 305 310 319 324 329 332 333 336 338 341 343 345 346 348 349 350 354 356 358 358 358 358 357 356 352 354 353 354 356 357
302 302 306 308 304 306 306 302 295 293 294 294 305 301 304 312 319 321 327 331 333 335 336 339 340 341 346 347 349 351 354 354 357 357 358 358 358 359 358 358 353 355 352 354
297 294 302 306 305 302 303 302 296 290 292 295 302 298 304 313 316 322 326 331 334 335 337 337 341 341 342 347 350 352 352 353 355 356 357 359 360 356 356 357 354 353 353 354
298 298 304 305 307 307 302 299 305 298 296 295 299 304 309 312 313 319 323 327 331 334 336 337 339 342 342 345 349 351 352 353 355 355 357 357 359 358 357 360 361 355 361 356
302 297 304 304 307 307 304 306 297 299 291 290 296 299 302 309 312 315 320 323 327 332 335 337 340 343 344 344 348 351 352 353 354 355 356 356 357 358 359 360 359 360 361 360
302 301 300 304 302 301 300 301 302 301 299 293 292 297 309 312 316 315 317 321 325 327 331 334 339 343 345 345 345 348 350 352 353 354 356 356 356 358 359 358 359 361 362 362
301 299 299 300 306 308 305 303 302 297 296 298 298 298 309 313 316 318 319 322 324 328 330 332 335 339 340 344 344 345 348 349 352 353 355 356 357 358 358 358 359 361 360 363
301 297 296 298 302 304 302 304 304 304 303 299 294 298 312 312 312 315 316 319 322 327 330 332 333 336 340 342 344 344 346 347 350 353 353 355 356 357 357 358 359 361 360 361
301 297 297 296 298 299 298 301 304 303 299 299 299 302 307 310 311 315 316 319 321 327 330 332 334 336 340 342 343 344 346 347 349 351 352 354 356 356 357 358 359 360 360 360
298 293 294 295 296 296 297 298 299 299 302 300 302 304 306 310 312 316 319 321 320 322 325 330 334 337 341 343 345 345 346 349 350 351 350 352 356 357 358 358 359 359 360 359
297 292 295 292 295 296 295 298 299 299 300 301 302 302 310 313 315 315 318 319 318 320 323 330 334 337 340 342 343 344 346 347 350 351 350 353 355 357 357 357 358 359 359 360
292 292 291 288 294 294 292 298 299 300 302 302 299 305 311 310 312 314 319 321 321 323 326 329 334 337 341 341 344 343 346 349 350 351 352 354 355 355 356 357 358 358 358 360
291 292 294 289 292 285 298 304 303 302 304 305 305 307 310 312 315 318 321 320 322 323 325 326 327 332 339 339 339 345 346 348 350 351 352 354 355 354 356 357 356 357 357 357
294 292 289 286 288 293 295 300 303 304 304 312 308 308 310 312 314 317 320 321 322 325 328 328 326 328 338 341 342 345 347 348 350 350 352 353 354 355 356 355 355 356 356 356
293 293 289 288 284 284 297 303 307 310 299 313 317 316 312 312 306 311 323 321 321 321 324 326 327 329 332 341 339 344 345 348 348 351 352 355 356 354 355 355 356 358 358 357
288 288 285 286 286 290 300 304 317 299 303 317 320 321 321 318 315 323 324 324 324 327 327 328 331 331 336 337 344 343 345 346 349 352 353 357 358 358 358 357 358 354 356 359
288 287 286 286 284 282 301 304 299 311 318 319 321 323 323 325 327 328 327 322 326 327 328 327 330 334 338 341 346 347 347 350 351 352 354 358 359 356 354 358 354 352 352 355
287 291 291 291 290 299 303 304 309 314 315 317 322 324 326 325 326 329 327 325 333 339 339 330 340 344 345 342 346 345 349 351 351 351 354 356 358 357 360 357 349 353 351 351
294 299 294 294 296 299 302 307 310 312 318 322 324 325 326 325 329 332 327 335 343 344 341 346 348 345 345 348 349 349 350 351 353 353 354 356 356 356 358 357 357 354 354 353
293 296 294 293 296 299 301 305 310 310 318 321 325 327 326 331 335 332 334 339 341 342 343 345 348 347 349 351 348 354 355 353 348 349 350 352 348 342 337 335 345 345 334 347
294 293 291 290 298 299 303 309 313 313 317 321 325 323 330 335 334 337 335 335 337 337 338 339 340 340 340 343 344 345 347 347 343 338 339 337 337 338 341 337 328 307 307 306
Wind_Speed
15 13 22 23 18 15 8 12 10 9 5 9 14 14 11 16 22 21 21 22 22 25 23 20 20 20 18 18 18 18 18 16 13 11 11 10 10 9 8 8 9 9 9 9
9 24 20 15 16 17 18 17 17 10 7 4 6 10 6 16 23 24 23 23 24 21 20 21 21 21 21 20 20 18 18 17 15 11 10 8 9 9 9 8 7 8 9 9
25 7 19 19 17 19 23 24 17 8 2 4 5 13 7 12 14 18 21 22 20 23 24 23 23 24 22 22 21 19 18 17 15 14 9 8 6 6 7 8 8 8 9 8
21 17 24 25 26 22 23 17 16 16 9 11 6 14 7 11 17 18 19 21 23 23 23 22 24 24 24 22 20 19 18 17 16 16 13 15 12 12 11 10 9 9 10 9
17 24 21 26 26 23 19 14 15 15 13 12 13 9 13 5 12 19 22 24 25 25 25 26 26 26 25 22 21 19 18 18 17 17 16 14 14 11 9 9 10 10 9 11
18 6 24 16 20 22 11 13 8 4 9 16 20 14 16 13 16 16 21 22 23 24 25 24 24 22 21 20 19 18 19 18 18 17 18 17 16 13 11 10 10 10 10 10
21 14 14 17 17 20 20 18 8 11 13 15 15 15 19 9 17 19 20 25 26 26 24 24 23 23 21 22 22 19 19 19 19 20 19 20 19 17 15 13 12 11 9 10
19 18 20 20 20 13 27 22 9 15 14 12 7 16 14 17 18 19 17 21 22 22 22 24 23 21 21 23 22 22 21 21 20 20 20 18 18 13 13 13 12 11 11 11
19 20 11 20 14 21 17 27 22 10 2 5 13 14 10 9 20 16 20 17 19 24 25 28 27 24 22 21 22 23 22 20 21 21 18 18 17 18 15 16 13 11 11 10
5 7 12 26 17 25 16 18 12 14 14 12 9 12 13 20 18 20 18 18 20 21 23 24 24 24 23 22 22 22 22 22 22 22 19 17 19 19 18 14 15 14 12 13
2 5 5 16 23 23 11 20 11 11 10 9 8 9 10 16 20 21 22 21 19 20 22 23 22 22 23 21 20 23 22 23 21 20 20 19 18 19 17 16 16 15 14 14
5 3 11 16 12 20 24 18 23 12 13 13 6 7 2 11 11 16 20 18 18 20 21 21 22 21 20 22 21 23 22 22 23 21 20 21 19 19 19 19 18 16 16 15
5 4 11 7 12 9 22 22 23 21 11 18 12 5 8 6 5 9 11 13 11 11 13 15 15 17 19 21 21 22 23 25 23 21 21 20 21 20 21 21 19 18 17 17
5 1 10 12 4 4 5 10 25 25 18 16 20 16 10 5 8 11 13 14 11 11 13 15 14 16 17 18 20 20 21 21 21 21 22 21 22 22 21 21 19 19 18 17
6 1 4 5 7 6 9 10 10 16 21 24 20 25 19 16 13 10 10 8 9 10 9 13 14 15 16 17 17 19 20 18 19 20 21 23 22 20 19 19 19 20 19 19
6 1 2 7 9 10 14 13 14 14 16 16 22 25 7 12 18 20 18 17 13 14 14 13 14 15 16 17 18 18 19 20 20 20 23 20 19 20 22 21 21 20 19 18
5 3 3 6 7 12 16 21 17 14 13 15 22 17 14 17 13 16 17 17 16 13 12 11 12 13 14 18 19 20 20 17 19 21 19 18 19 21 22 21 20 21 21 19
5 5 3 5 2 11 9 4 6 13 17 21 22 19 15 16 17 18 16 18 19 17 16 14 13 14 17 18 19 18 17 19 19 18 16 16 18 20 18 18 21 20 19 21
17 9 4 6 13 16 18 7 3 4 13 7 16 20 19 19 20 19 16 17 20 19 16 13 13 15 12 14 16 15 16 17 17 19 19 20 20 19 18 20 22 20 18 19
14 14 8 6 9 12 1 9 11 4 16 6 3 7 14 17 16 11 14 19 20 17 15 15 15 10 12 14 16 16 17 17 18 19 22 19 17 18 20 22 21 16 16 18
6 8 17 14 11 9 10 6 1 13 1 4 5 8 11 12 13 14 18 12 14 14 14 12 9 10 8 7 11 15 15 18 22 14 14 15 16 16 14 9 8 7 9 11
7 7 8 12 11 22 8 13 12 5 6 11 13 12 14 15 20 20 22 17 13 13 9 8 6 5 1 6 11 13 16 11 8 10 13 13 13 12 12 12 10 9 8 9
8 10 5 10 7 13 11 15 22 18 16 18 16 18 16 19 20 20 18 13 6 6 4 5 7 7 6 3 6 9 6 8 9 10 11 12 12 12 12 13 13 14 15 16
9 10 9 13 16 22 23 25 20 20 20 17 17 21 18 22 21 20 16 11 7 6 8 8 10 11 10 7 7 6 7 7 9 10 10 10 11 11 13 11 11 9 11 13
10 6 8 15 20 21 24 23 25 23 20 21 18 17 18 20 22 17 11 10 10 9 9 10 11 12 14 11 10 8 6 8 8 8 9 9 8 10 7 4 1 4 1 9
16 19 14 14 12 13 17 15 16 20 22 19 14 14 14 17 11 10 9 8 8 10 10 11 11 11 12 11 11 8 8 9 10 9 6 6 8 8 8 9 7 10 3 14
Wind_Direction
190 195 208 211 219 228 234 234 238 246 212 217 223 234 240 195 202 202 190 190 196 204 200 201 205 208 207 204 201 199 199 200 197 201 203 208 214 219 226 231 241 228 222 218
171 221 206 200 203 218 226 237 235 248 258 264 228 245 243 201 207 204 195 195 201 199 200 200 203 207 206 205 204 200 201 195 197 199 202 207 206 218 222 225 226 219 215 209
202 184 196 197 202 212 223 226 222 245 336 230 267 260 220 212 219 207 210 205 204 200 199 199 203 205 207 206 203 201 199 198 197 200 195 201 202 218 210 221 228 219 223 215
223 207 191 200 212 206 224 222 236 242 251 247 214 266 223 212 207 209 210 206 207 203 205 205 201 209 208 209 203 201 199 201 199 192 197 202 206 209 215 213 217 220 222 221
200 200 191 208 207 202 222 199 212 232 239 258 223 252 242 199 214 213 213 211 212 206 203 205 205 207 210 207 206 200 195 198 200 195 203 201 215 217 216 215 217 221 221 224
204 210 192 200 209 200 189 185 162 195 234 240 238 233 246 212 210 217 217 217 214 211 211 210 210 210 213 211 208 205 201 201 197 199 203 204 211 216 215 215 216 224 225 216
204 192 196 193 183 196 195 173 176 214 215 238 221 228 242 238 213 217 209 215 215 208 210 211 210 205 207 204 202 201 198 205 199 199 201 206 210 210 212 211 216 216 215 209
193 205 191 186 202 183 200 199 208 214 230 235 189 234 232 222 229 228 231 219 213 210 210 212 211 207 205 205 203 199 197 203 202 202 205 206 209 212 215 215 221 217 218 211
201 215 190 176 187 182 182 210 209 247 131 248 222 245 260 232 219 214 217 214 210 209 210 211 210 210 205 205 203 201 200 201 200 203 204 205 205 210 211 213 210 214 217 215
185 202 197 190 179 197 191 170 178 212 226 233 207 240 240 192 205 215 212 210 214 213 214 216 214 211 211 206 204 202 201 200 200 201 202 205 205 207 210 207 211 212 211 216
295 244 140 170 201 183 181 191 203 205 225 228 243 237 208 213 209 204 211 215 212 210 215 215 213 212 212 210 203 203 200 199 200 201 202 204 205 206 208 209 210 209 205 205
35 269 212 205 191 209 200 191 197 204 194 228 278 248 263 230 222 223 221 218 218 213 213 211 214 212 210 209 205 202 202 201 202 199 201 203 205 203 205 207 207 204 206 204
0 235 195 208 208 200 219 212 203 218 236 212 213 187 233 241 233 207 228 240 232 226 234 226 218 210 209 207 205 204 200 205 202 198 200 202 203 202 203 209 207 202 205 205
300 20 264 222 216 24 222 218 211 220 229 224 226 236 226 278 241 257 253 257 243 216 209 214 216 215 211 209 203 203 207 205 199 199 199 200 203 205 204 206 205 202 203 202
7 353 331 309 303 300 268 259 237 234 240 233 240 238 232 255 281 291 297 277 265 252 219 209 216 213 211 207 203 203 207 202 200 197 200 206 204 202 204 206 207 207 202 202
357 308 324 299 293 285 277 257 252 247 245 254 258 261 290 262 241 248 263 281 269 270 256 220 219 217 210 208 204 201 203 202 194 198 205 204 201 198 202 204 203 204 205 205
315 294 245 252 313 313 270 244 244 245 237 236 242 249 251 247 234 247 252 244 252 246 248 246 217 212 210 207 201 204 204 194 198 201 206 203 201 204 205 203 202 203 202 200
244 223 227 270 247 240 261 318 268 263 254 232 245 251 249 247 245 231 233 247 259 257 252 246 240 229 218 219 211 208 193 193 197 205 204 203 206 209 207 206 208 207 202 203
217 227 222 231 226 282 295 252 259 252 257 286 266 250 242 250 256 252 240 243 245 251 258 254 260 245 231 212 210 196 191 190 193 203 204 204 202 204 202 209 211 209 205 205
206 223 242 189 244 237 229 245 264 231 265 185 334 289 270 260 247 252 241 231 237 241 244 246 247 244 231 216 203 187 192 189 201 203 207 204 204 206 207 209 211 212 211 216
163 204 220 228 248 256 272 281 342 215 115 327 288 295 294 273 267 290 294 264 239 242 241 233 245 246 239 214 188 195 189 197 208 204 205 205 206 210 215 213 214 213 234 245
214 197 197 222 244 241 255 265 242 347 320 311 308 304 291 277 279 276 280 282 267 250 242 209 208 216 143 199 193 191 197 199 190 190 197 199 201 204 200 194 182 182 205 217
245 225 224 225 223 259 291 295 298 302 297 303 304 301 298 292 277 278 280 275 239 203 129 141 148 113 73 89 191 182 160 161 165 182 194 197 197 197 193 183 189 194 169 214
260 260 245 252 248 261 272 283 279 286 293 298 292 286 290 280 276 269 259 222 181 145 119 130 128 110 94 85 86 115 151 152 160 181 187 188 194 190 195 201 199 206 196 207
248 248 256 273 267 270 270 267 276 284 274 279 287 279 280 273 269 249 208 183 162 136 122 122 121 114 100 89 83 83 116 155 152 158 159 162 143 139 120 88 245 160 298 222
230 237 224 247 263 271 275 299 308 283 268 263 271 294 273 252 231 171 142 128 119 112 111 104 102 91 87 83 76 68 86 111 123 123 121 135 137 140 137 121 107 43 112 121